Regional Weather Roundup
Issued by NWS

Home | Current Version | Previous Version | Text Only | Print | Product List | Glossary On
Versions: 1 2 3 4 5 6 7 8 9 10 11 12 13 14 15 16 17 18 19 20 21 22 23 24 25 26 27 28 29 30 31 32 33 34 35 36 37 38 39 40 41 42 43 44 45 46 47 48 49 50
000
ASUS45 KTFX 041919
RWRMT
MONTANA HOURLY WEATHER ROUNDUP
NATIONAL WEATHER SERVICE GREAT FALLS MT
1219 PM MST WED MAR 4 2015

NOTE: "FAIR" INDICATES FEW OR NO CLOUDS BELOW 12000 FEET WITH NO
SIGNIFICANT WEATHER AND/OR OBSTRUCTIONS TO VISIBILITY.

* THESE STATIONS ARE NOT UNDER NWS QUALITY CONTROL. THEY DO NOT
   REPORT WEATHER SUCH AS PRECIPITATION OR FOG.

MTZ001>007-043-042000-
WEST OF THE DIVIDE
CITY           SKY/WX    TMP DP  RH WIND       PRES   REMARKS
KALISPELL      SUNNY     27  12  53 S6        30.23F WCI  20
MISSOULA       SUNNY     28  14  56 VRB5      30.26F WCI  22
BUTTE          SUNNY     23   3  42 N7        30.12S WCI  15
MULLAN PASS    SUNNY     21   3  45 VRB6      30.10S WCI  13
* ANACONDA     SUNNY     27   7  42 S7         N/A   WCI  19
* ESSEX        N/A       26   3  37 NW2        N/A
* EUREKA APT   SUNNY     27  10  49 CALM      30.25F
* HAMILTON APT SUNNY     34   9  35 S8        30.22F WCI  27
* LIBBY APT    SUNNY     28  12  51 CALM      30.25F
* LINCOLN      N/A       26   7  44 SW6G12     N/A   WCI  19
* LOOKOUT PASS N/A       27   6  41 VRB4G9     N/A
* POLSON       N/A       30  15  54 SW3        N/A
* RONAN APT    SUNNY     28  16  61 N/A        N/A
* SEELEY LAKE  N/A       28   6  39 N/A        N/A
* THOMP F APT  SUNNY     22   0  38 NW6G15     N/A   WCI  14
$$

MTZ008-052>055-042000-
SOUTHWEST MONTANA
CITY           SKY/WX    TMP DP  RH WIND       PRES   REMARKS
BOZEMAN        SUNNY     25  10  53 CALM      30.18F
DILLON         SUNNY     27   7  42 S12       30.14S WCI  16
* W YELLOWSTON SUNNY     17  -3  41 W2         N/A
* THREE FORKS  SUNNY     27   9  46 N/A        N/A
* BOULDER HILL N/A       20   2  45 SW11       N/A   WCI   8
* MONIDA PASS  N/A       18  -2  41 W9         N/A   WCI   7
* RAYNOLDS PAS N/A       18   0  45 SE3G8      N/A
* WHITEHALL    N/A       29   7  39 SW17G24    N/A   WCI  17
* WISE RIVER   N/A       25   2  37 W4         N/A
$$

MTZ009>010-012-014-046-048-049-054-042000-
EAST SLOPES AND CENTRAL MONTANA
CITY           SKY/WX    TMP DP  RH WIND       PRES   REMARKS
CUT BANK       SUNNY     28   5  37 SW10      30.04F WCI  19
GREAT FALLS    SUNNY     28  12  51 SW16      30.09F WCI  16
HELENA         SUNNY     25   7  46 E6        30.17F WCI  18
MALMSTROM AFB  SUNNY     28   9  45 SW17      30.11F WCI  16
* CONRAD       SUNNY     25   9  50 S7         N/A   WCI  17
* DEARBORN     N/A       26   9  48 SE6        N/A   WCI  19
* EAST GLACIER N/A       24   5  44 W23G32     N/A   WCI   9
* MONARCH      N/A       22  -3  33 W11G16     N/A   WCI  11
* PENDROY      N/A       21   5  50 SW4        N/A
* ROGERS PASS  N/A       21   6  52 SE6G16     N/A   WCI  13
* SWEET GRASS  N/A       21   2  43 S14        N/A   WCI   8
* WHITE SULPH  N/A       23   3  42 SW5G11     N/A   WCI  16
$$

MTZ011-013-016-021-035-040-045-047-050-051-042000-
NORTH CENTRAL MONTANA
CITY           SKY/WX    TMP DP  RH WIND       PRES   REMARKS
HAVRE          SUNNY     25   3  38 SW14      30.17F WCI  13
LEWISTOWN      SUNNY     19   3  49 W5        30.10F WCI  12
* N BAR RANCH  SUNNY     19  -2  39 VRB3      30.09F
* CHINOOK      SUNNY     19   0  43 NE6       30.19F WCI  11
* FORT BENTON  SUNNY     28   5  37 S9        30.16F WCI  19
* CHESTER      N/A       23   1  38 S5         N/A   WCI  16
* DENTON       N/A       25   4  40 S2G9       N/A
* GEYSER       N/A       25   6  44 NW12G17    N/A   WCI  14
* JUDITH GAP   N/A       21   1  41 NE3        N/A
* LOMA         N/A       25   5  42 SE6        N/A   WCI  18
$$

MTZ017>020-022>027-061-062-042000-
NORTHEAST MONTANA
CITY           SKY/WX    TMP DP  RH WIND       PRES   REMARKS
GLASGOW        SUNNY     10  -9  41 W6        30.27F
GLENDIVE       CLOUDY     9  -8  45 NW5       30.28F
SIDNEY         SUNNY      3 -13  47 CALM      30.36F
WOLF POINT     SUNNY     10  -9  41 N/A       30.31F
* BEAVER HILL  N/A        4 -11  49 NW9G18     N/A   WCI -10
* CIRCLE       N/A       10  -4  53 NW7        N/A   WCI  -1
* LINDSAY DVD  N/A        6  -6  57 W13G19     N/A   WCI -11
* NAVAJO       N/A       -3 -14  59 NW8        N/A   WCI -18
* PLENTYWOOD A SUNNY     -6 -17  58 CALM      30.30S
* POPLAR APT   SUNNY      5  -9  52 N7        30.33F WCI  -7
* SACO         N/A        9  -6  50 E2G7       N/A
$$

MTZ028>042-056>058-042000-
SOUTHCENTRAL AND SOUTHEAST MONTANA
CITY           SKY/WX    TMP DP  RH WIND       PRES   REMARKS
BILLINGS       SUNNY     18   3  52 SW8       30.17F WCI   8
LIVINGSTON     SUNNY     27   7  42 W25G30    30.11F WCI  12
MILES CITY     CLOUDY    14  -2  49 NW7       30.27F WCI   4
* BIG TIMBER A SUNNY     25   7  46 W26G32    30.09F WCI   9
* FORSYTH APT  SUNNY     18  -2  41 NW12      30.25F WCI   5
* LAUREL APT   SUNNY     21   1  41 SW9        N/A   WCI  11
* ROUNDUP APT  SUNNY     23  -6  27 N/A        N/A
* ALZADA       N/A       10  -4  53 W17        N/A   WCI  -8
* HYSHAM       N/A       18  -6  34 W5G12      N/A   WCI  11
* REED POINT   N/A       29  10  45 W21G29     N/A   WCI  16
$$

REGIONAL REPORTS...DAKOTAS
CITY           SKY/WX    TMP DP  RH WIND       PRES   REMARKS
WILLISTON      SUNNY     -2 -15  53 VRB6      30.36S WCI -14
DICKINSON      SUNNY      7  -9  47 NW13      30.23F WCI  -9
BEACH          PTSUNNY    5  -8  54 NW13      30.26F WCI -12
CROSBY         SUNNY     -4 -17  53 NW8       30.35S WCI -19
TIOGA          SUNNY     -4 -17  53 NW9       30.32F WCI -20
WATFORD CITY   SUNNY      0 -13  53 NW10      30.31F WCI -16
BISMARCK       SUNNY      1 -13  51 NW13      30.36R WCI -17
GRAND FORKS    CLOUDY     1  -9  62 NW20      30.32R WCI -21
FARGO          CLOUDY     3  -9  57 NW16      30.33R WCI -16
BUFFALO SD     SUNNY     10  -6  48 NW21G29   30.15S WCI  -9
RAPID CITY     SUNNY     14   3  61 N22G28    30.21S WCI  -4
$$

REGIONAL REPORTS...WYOMING/IDAHO/WASHINGTON
CITY           SKY/WX    TMP DP  RH WIND       PRES   REMARKS
GILLETTE       SUNNY     12   0  58 NW9       30.15F
SHERIDAN       SUNNY     10   1  67 S5        30.18F WCI   1
CODY           SUNNY     18   3  52 SE5       30.09F WCI  11
YELLOWSTONE LA SUNNY      7  -6  55 E3        30.05S
SALMON         SUNNY     28   5  37 CALM      30.23F
MULLAN PASS    SUNNY     21   3  45 VRB6      30.10S WCI  13
SAND POINT     SUNNY     34  18  52 S7        30.28F WCI  28
SPOKANE        SUNNY     37  16  42 S6        30.27S WCI  32
$$

REGIONAL REPORTS...ALBERTA
CITY           SKY/WX    TMP DP  RH WIND       PRES   REMARKS
CALGARY        PTSUNNY   27   0  31 SW9       29.96F WCI  18
LETHBRIDGE     PTSUNNY   28   3  34 S9        30.04F WCI  19
MEDICINE HAT   SUNNY     19   3  49 S7        30.15F WCI  10
EDMONTON       PTSUNNY   12   0  58 S12       30.00F WCI  -2
WATERTON GATE  N/A       27  10  49 SW24G33    N/A   WCI  12
CARDSTON       N/A       28  14  56 SE5        N/A   WCI  22
MILK RIVER     N/A       25   7  46 SW12       N/A   WCI  14
$$

REGIONAL REPORTS...SASKATCHEWAN
CITY           SKY/WX    TMP DP  RH WIND       PRES   REMARKS
SWIFT CURRENT  SUNNY      0 -11  59 SW8       30.17F WCI -14
MOOSE JAW      N/A       -6 -18  55 W9        30.33S WCI -22
REGINA         N/A       -9 -18  64 SW7       30.32S WCI -24
ASSINIBOIA     N/A       -6 -18  55 W7         N/A   WCI -20
CORONACH       N/A       -2 -15  53 NW6        N/A   WCI -14

$$



USA.gov is the U.S. government's official web portal to all federal, state and local government web resources and services.